Location: Mountain Grove
(34.0887°N, 86.6172°W)
Time: 22:04:40
(UTC+00:00)

SL-27 R/B - Pass Details

Date: 14 July 2020
Orbit: 420 x 470 km, 74.7° (Epoch: 08 August)

Event Time Altitude Azimuth Distance (km) Brightness Sun altitude
Exits shadow 08:35:04 27° 121° (ESE) 907 4.0 -22.2°
Maximum altitude 08:35:41 29° 101° (E) 867 4.1 -22.1°
Drops below altitude 10° 08:38:44 10° 40° (NE) 1,583 6.3 -21.7°
Sets 08:40:58 0° 29° (NNE) 2,449 7.5 -21.4°
